Weather History for KRDU - October, 2014

Change the Weather History Date:

Thursday, October 23, 2014

  Actual Average Record
Temperature  
Mean Temperature 56 °F 59 °F  
Max Temperature 70 °F 71 °F 88 °F (1941)
Min Temperature 42 °F 47 °F 29 °F (1998)
Degree Days  
Heating Degree Days 9 7  
Month to date heating degree days 68 104  
Since 1 July heating degree days 78 125  
Cooling Degree Days 0 1  
Month to date cooling degree days 60 45  
Year to date cooling degree days 1652 1713  
Growing Degree Days 6 (Base 50)    
Moisture  
Dew Point 41 °F    
Average Humidity 61    
Maximum Humidity 83    
Minimum Humidity 39    
Precipitation  
Precipitation 0.00 in 0.10 in 1.89 in (1990)
Month to date precipitation 2.00 2.45  
Year to date precipitation 46.32 36.35  
Sea Level Pressure  
Sea Level Pressure 29.99 in    
Wind  
Wind Speed 4 mph (WNW)    
Max Wind Speed 13 mph    
Max Gust Speed 21 mph    
Visibility 10 miles    
Events      
T = Trace of Precipitation, MM = Missing Value Source: NWS Daily Summary

Daily Weather History Graph

Daily Weather History Graph

Search for Another Location

Airport or City:

Trip Planner

Search our weather history database for the weather conditions in past years. The results will help you decide how hot, cold, wet, or windy it might be!

Date:

Astronomy

Oct. 23, 2014 Rise Set
Actual Time 7:28 AM EDT 6:29 PM EDT
Civil Twilight 7:02 AM EDT 6:55 PM EDT
Nautical Twilight 6:32 AM EDT 7:25 PM EDT
Astronomical Twilight 6:03 AM EDT 7:54 PM EDT
Moon 7:07 AM EDT (10/23) 6:29 PM EDT (10/23)
Length of Visible Light 11h 52m
Length of Day
11h 00m
Waning Crescent, 0% of the Moon is Illuminated
Oct 23
Waning Crescent
Oct 23
New
Oct 30
First Quarter
Nov 6
Full
Nov 14
Last Quarter

Hourly Weather History & Observations

Time (EDT) Temp. Windchill Dew Point Humidity Pressure Visibility Wind Dir Wind Speed Gust Speed Precip Events Conditions
12:51 AM 48.0 °F - 39.9 °F 74% 30.02 in 10.0 mi Calm Calm - N/A   Clear
1:51 AM 46.9 °F - 39.9 °F 77% 30.02 in 10.0 mi West 3.5 mph - N/A   Clear
2:51 AM 44.1 °F 41.5 °F 39.0 °F 82% 30.02 in 10.0 mi WSW 4.6 mph - N/A   Clear
3:51 AM 44.6 °F - 39.2 °F 81% 30.01 in 10.0 mi Calm Calm - N/A   Clear
4:51 AM 46.0 °F - 39.9 °F 79% 30.00 in 10.0 mi Calm Calm - N/A   Clear
5:51 AM 46.0 °F 44.8 °F 39.0 °F 76% 30.00 in 10.0 mi Variable 3.5 mph - N/A   Clear
6:51 AM 45.0 °F - 39.0 °F 80% 30.02 in 10.0 mi Calm Calm - N/A   Clear
7:51 AM 43.0 °F - 37.9 °F 82% 30.02 in 10.0 mi Calm Calm - N/A   Clear
8:51 AM 51.1 °F - 39.9 °F 66% 30.02 in 10.0 mi WNW 4.6 mph - N/A   Clear
9:51 AM 55.0 °F - 39.9 °F 57% 30.02 in 10.0 mi NW 10.4 mph 19.6 mph N/A   Clear
10:51 AM 57.9 °F - 41.0 °F 53% 30.02 in 10.0 mi Variable 5.8 mph - N/A   Clear
11:51 AM 62.1 °F - 42.1 °F 48% 30.02 in 10.0 mi Variable 3.5 mph - N/A   Clear
12:51 PM 64.0 °F - 42.1 °F 45% 29.99 in 10.0 mi WNW 6.9 mph - N/A   Clear
1:51 PM 66.0 °F - 42.1 °F 42% 29.96 in 10.0 mi WNW 8.1 mph - N/A   Clear
2:51 PM 68.0 °F - 43.0 °F 40% 29.93 in 10.0 mi WNW 5.8 mph 20.7 mph N/A   Clear
3:51 PM 69.1 °F - 44.1 °F 40% 29.92 in 10.0 mi WNW 8.1 mph - N/A   Clear
4:51 PM 69.1 °F - 44.1 °F 40% 29.92 in 10.0 mi NNW 8.1 mph - N/A   Clear
5:51 PM 66.9 °F - 44.1 °F 44% 29.93 in 10.0 mi NW 3.5 mph - N/A   Clear
6:51 PM 63.0 °F - 43.0 °F 48% 29.96 in 10.0 mi WNW 4.6 mph - N/A   Partly Cloudy
7:51 PM 61.0 °F - 43.0 °F 52% 29.97 in 10.0 mi WNW 4.6 mph - N/A   Partly Cloudy
8:51 PM 59.0 °F - 42.1 °F 53% 29.99 in 10.0 mi NW 4.6 mph - N/A   Partly Cloudy
9:51 PM 57.9 °F - 41.0 °F 53% 30.01 in 10.0 mi Variable 4.6 mph - N/A   Partly Cloudy
10:51 PM 55.9 °F - 41.0 °F 57% 30.02 in 10.0 mi Variable 4.6 mph - N/A   Clear
11:51 PM 54.0 °F - 41.0 °F 62% 30.02 in 10.0 mi Calm Calm - N/A   Partly Cloudy